SL-8 R/B, 21108

Orbit data source: Space-Track

SL-8 R/B, 21108 is space debris in LEO originally from a launch on Tue, 12 Feb 1991 UTC launched from the Plesetsk Missile And Space Complex (PKMTR). Debris objects in space refer to the collection of defunct objects orbiting the Earth. Examples of debris include non-operational satellites, rocket bodies, and fragments generated from explosions, collisions, or faulty payload assembly.

Loading next visibility...
Identifier
21108, 1991-009J
Orbit
LEO
Country
Flag of CISCIS
Related business
Manufacturer
Polyot
Mission
Spacecraft
Bus & Motor
S3, Unknown motor
Mass
1,434 kg wet, 1,434 kg dry
Launch date (UTC)
1991-02-12 (35 years ago)
Launch vehicle
Unknown
Launch site
Plesetsk Missile And Space Complex (PKMTR)
Object type
Payload
Rocket body
Debris
Shape & HBR
Cyl, 3.3 m
Radar Cross Section
14.646 m², Large (>1 m²)

Expand to show TLE details & history
Last TLE update: 2 days ago

TLE from 2 days ago
0 SL-8 R/B
1 21108U 91009J   26171.34379248  .00000024  00000-0  36787-3 0  9998
2 21108  74.0527 239.3837 0176121 307.9544 118.5848 12.18525026466041
Epoch: 2026-06-20T08:15Z
TLE epoch observation values (Epoch: 2026-06-20T08:15:03.670Z)
Latitude
63.38476°
Longitude
-118.36375°
Altitude
1,678.617 km
Speed
7.01 km/s
True Right ascension
18h 15m 50s
True Declination
63° 15' 45"
Sunlit
Object was in daylight at epoch
Visualization orbit readout
Latitude
Unknown
Longitude
Unknown
Altitude
Unknown
Speed
Unknown
Apparent Right ascension
Unknown
Apparent Declination
Unknown
Sunlit
N/A
Visualization observer readout
Local Sidereal Time
05:18:44
Azimuth
Unknown
Elevation
Unknown
Doppler factor
Unknown
Orbital elements
Apogee altitude
1,737.297 km
Perigee altitude
1,456.385 km
Semi-major axis
7,974.978 km
Eccentricity
0.01761
Inclination
74.0527°
RAAN
239.3837°
Arg. of periapsis
307.9544°
True anomaly
120.33825°
Mean anomaly
118.5848°
Eccentric anomaly
119.46339°
Mean motion
3.04754 °/min
Orbital period
118.13 mins
BSTAR
0.00036787
Loading maneuver chart data...
Computing Atmospheric mass density...
Loading historical data...
Loading historical data...
Loading historical data...
Loading historical data...
Loading historical data...
Loading historical data...
Loading historical data...

Documentation

Showing up to 5 results
|